Weather in Korotych

Ukraine / Kharkiv Region     49°56′47″N   36°02′25″E
temp.,
°C
wind,
m/s
gust,
m/s
humid.,
%
clouds,
%
prec.,
mm/h
press.,
hPa
HPBL,
m
24 september, fri
fri2400:00+7wsw249095 0.1 1013163
03:00+7w2491100 0.2 1012178
06:00+6sw359430 0.0 1011124
09:00+9ssw597791 0.0 1010558
12:00+12ssw71054100 0.0 10081559
15:00+9ssw71281100 0.8 1006975
18:00+8s71391100 3.1 10051205
21:00+9ssw5994100 5.3 1005610
25 september, sat
sat2500:00+9ssw4895100 0.1 1005392
03:00+8sw359669 0.1 1005257
06:00+8sw239379 0.0 1006105
09:00+10wnw2387100 0.1 1008273
12:00+11w22786 0.1 1010422
15:00+14w565599 0.2 10111486
18:00+11wnw4875100 0.0 1013415
21:00+11wsw388183 0.1 1014351
26 september, sun
sun2600:00+11wsw41084100 0.1 1013459
03:00+11sw51185100 0.4 1013465
06:00+11wsw51291100 0.3 1012524
09:00+13wnw61188100 0.6 1012823
12:00+14nw91170100 0.1 10131200
15:00+14nw7115434 0.1 10141535
18:00+13nw6115465 0.0 1015893
21:00+12nw6116135 0.0 1015957
27 september, mon
mon2700:00+9nw511775 0.0 1016521
03:00+7nw511865 0.0 1017430
06:00+6nw411926 0.0 1018367
09:00+9nnw5880100 0.0 1019511
12:00+12n566892 0.0 10201004
15:00+13nne455899 0.1 10201044
18:00+12n356985 0.0 1021156
21:00+10nne378331 0.1 1023179
28 september, tue
tue2800:00+8nne3484100 0.0 102384
03:00+8ne2483100 0.0 1024100
06:00+7nne3487100 0.0 102581
09:00+10ne347459 0.0 1026363
12:00+14ene344963 0.0 10261525
15:00+14ene4449100 0.1 10261138
18:00+12ene3658100 0.0 1027301
21:00+11ene4869100 0.2 1028411